SCP
0 0 0 0 0 0 0 0 0 0 0 0 0 0 0 0 0 0 0 0 0 0 0 0 0 0 0 0 0 0 0 0 0 0 0 0 0 0 0 0 0 0 0 0
0 0 0 0 0 0 0 0 0 0 0 0 0 0 0 0 0 0 0 0 0 0 0 0 0 0 0 0 0 0 0 0 0 0 0 0 0 0 0 0 0 0 0 0
0 0 0 0 0 0 0 0 0 0 0 0 0 0 0 0 0 0 0 0 0 0 0 0 0 0 0 0 0 0 0 0 0 0 0 0 0 0 0 0 0 0 0 0
0 0 0 0 0 0 0 0 0 0 0 0 0 0 0 0 0 0 0 0 0 0 0 0 0 0 0 0 0 0 0 0 0 0 0 0 0 0 0 0 0 0 0 0
0 0 0 0 0 0 0 0 0 0 0 0 0 0 0 0 0 0 0 0 0 0 0 0 0 0 0 0 0 0 0 0 0 0 0 0 0 0 0 0 0 0 0 0
0 0 0 0 0 0 0 0 0 0 0 0 0 0 0 0 0 0 0 0 0 0 0 0 0 0 0 0 0 0 0 0 0 0 0 0 0 0 0 0 0 0 0 0
0 0 0 0 0 0 0 0 0 0 0 0 0 0 0 0 0 0 0 0 0 0 0 0 0 0 0 0 0 0 0 0 0 0 0 0 0 0 0 0 0 0 0 0
0 0 0 0 0 0 0 0 0 0 0 0 0 0 0 0 0 0 0 0 0 0 0 0 0 0 0 0 0 0 0 0 0 0 0 0 0 0 0 0 0 0 0 0
0 0 0 0 0 0 0 0 0 0 0 0 0 0 0 0 0 0 0 0 0 0 0 0 0 0 0 0 0 0 0 0 0 0 0 0 0 0 0 0 0 0 0 0
0 0 0 0 0 0 0 0 0 0 0 0 0 0 0 0 0 0 0 0 0 0 0 0 0 0 0 0 0 0 0 0 0 0 0 0 0 0 0 0 0 0 0 0
0 0 0 0 0 0 0 0 0 0 0 0 0 0 0 0 0 0 0 0 -0 0 0 0 0 0 0 0 0 0 0 0 0 0 0 0 0 0 0 0 0 0 0 0
0 0 0 0 0 0 0 0 0 0 0 0 0 0 -0 0 0 0 0 0 0 0 0 0 0 0 0 0 0 0 0 0 0 0 0 0 0 0 0 0 0 0 0 0
0 0 0 0 0 0 0 0 0 0 0 0 -0 -0 -0 -0 -0 0 0 0 0 0 0 0 0 0 0 0 0 0 0 0 0 0 0 0 0 0 0 0 0 0 0 0
0 0 0 0 0 0 0 0 0 0 0 -0 -0 -0 -0 -0 -0 -0 0 0 0 0 0 0 0 0 0 0 0 0 0 0 0 0 0 0 0 0 0 0 0 0 0 0
0 0 0 0 0 0 0 0 0 0 0 0 0 0 0 0 0 0 0 0 0 0 0 0 0 0 0 0 0 0 0 0 0 0 0 0 0 0 0 0 0 0 0 0
0 0 0 0 0 0 0 0 0 0 0 -0 -0 -0 0 0 0 0 0 0 0 0 0 0 0 0 0 0 0 0 0 0 0 0 0 0 0 0 0 0 0 0 0 0
0 0 0 0 0 0 0 0 0 0 -0 -0 -0 -0 0 0 0 0 0 0 0 0 0 0 0 0 0 0 0 0 0 0 0 0 0 0 0 0 0 0 0 0 0 0
0 0 0 0 0 0 0 0 -0 0 -0 -0 -0 -0 0 0 0 0 0 0 0 0 0 0 0 0 0 0 0 0 0 0 0 0 0 0 0 0 0 0 0 0 0 0
0 0 0 0 0 0 0 0 -0 -0 -0 -0 -0 0 0 0 0 0 0 0 0 0 0 0 0 0 0 0 0 0 0 0 0 0 0 0 0 0 0 0 0 0 0 0
0 0 0 0 0 0 0 0 0 -0 0 0 0 0 0 0 0 0 0 0 0 0 0 0 0 0 0 0 0 0 0 0 0 0 0 0 0 0 0 0 0 0 0 0
0 0 0 0 0 0 0 0 -0 -0 0 0 0 0 0 0 0 0 0 0 0 0 0 0 0 0 0 0 0 0 0 0 0 0 0 0 0 0 0 0 0 0 0 0
0 0 0 0 0 0 0 0 -0 -0 0 0 0 0 0 0 0 0 0 0 0 0 0 0 0 0 0 0 0 0 0 0 0 0 0 0 0 0 0 0 0 0 0 0
0 0 0 0 0 0 0 0 -0 0 0 0 0 0 0 0 0 0 0 0 0 0 0 0 0 0 0 0 0 0 0 0 0 0 0 0 0 0 0 0 0 0 0 0
-0 -0 -0 0 -0 -0 -0 -0 -0 0 0 0 0 0 0 0 0 0 0 0 0 0 0 0 0 0 0 0 0 0 0 0 0 0 0 0 0 0 0 0 0 0 0 0
-0 0 0 0 0 0 0 0 0 0 0 0 0 0 0 0 0 0 0 0 0 0 0 0 0 0 0 0 0 0 0 0 0 0 0 0 0 0 0 0 0 0 0 0
0 0 0 0 0 0 0 0 0 0 0 0 0 0 0 0 0 0 0 0 0 0 0 0 0 0 0 0 0 0 0 0 0 0 0 0 0 0 0 0 0 0 0 0
0 0 0 0 0 0 0 0 0 0 0 0 0 0 0 0 0 0 0 0 0 0 0 0 0 0 0 0 0 0 0 0 0 0 0 0 0 0 0 0 0 0 0 0
Wind_Speed
5 4 3 4 4 6 7 8 9 8 8 10 7 6 6 5 5 5 6 7 9 10 9 8 8 8 9 9 8 9 9 10 10 9 8 7 7 7 7 7 7 6 6 6
3 2 2 3 5 5 6 5 6 5 9 6 4 3 3 3 4 5 6 8 9 9 8 9 10 10 9 9 9 9 10 10 8 7 7 8 8 7 7 7 6 6 7 7
3 2 1 5 6 5 4 4 6 8 7 3 3 2 2 3 1 3 4 5 6 8 9 10 10 10 11 10 8 9 9 8 7 7 8 8 7 6 7 7 6 7 7 7
1 1 5 7 1 2 3 3 4 4 4 2 2 1 3 3 2 2 2 1 4 5 5 5 6 6 6 7 8 8 7 7 6 7 7 6 6 7 7 5 6 7 7 8
3 2 6 5 1 2 2 4 3 3 3 2 2 2 4 6 5 3 2 2 1 1 2 3 5 6 7 6 6 7 7 8 7 8 7 6 7 7 6 5 6 6 6 8
3 3 5 6 1 1 2 4 3 2 2 1 2 3 2 6 6 6 6 4 3 3 4 4 3 6 7 6 6 7 7 7 6 7 7 8 8 7 5 5 7 7 7 8
4 4 8 5 0 3 3 7 1 1 0 1 2 2 1 3 5 6 7 6 5 5 4 3 3 6 5 5 6 6 3 3 4 5 6 6 5 4 4 5 5 6 7 8
4 3 8 2 3 5 6 1 1 1 2 3 3 3 3 5 6 8 8 8 6 5 5 4 4 5 4 3 3 2 3 3 3 3 4 4 4 4 4 4 5 6 6 8
8 8 5 2 3 2 2 2 1 2 2 4 5 5 5 6 8 9 8 7 6 6 7 6 5 4 3 1 1 3 2 2 2 2 2 2 3 4 3 3 4 5 5 7
3 6 4 3 2 1 2 2 2 4 5 6 6 6 6 7 7 8 8 7 6 7 8 7 5 4 3 3 2 3 2 0 0 1 2 2 2 3 3 4 5 5 6 7
4 5 3 2 1 2 4 6 7 7 6 6 7 7 7 7 7 6 6 5 6 6 7 6 5 5 5 4 3 3 2 1 1 1 2 2 2 3 4 5 5 6 6 6
7 6 5 3 2 6 8 8 8 8 8 6 7 8 8 7 5 4 5 5 6 6 6 5 5 6 5 4 3 3 2 2 1 1 1 2 2 4 6 8 10 11 13 11
4 1 2 3 4 6 8 8 9 9 8 8 7 7 6 5 4 4 5 5 5 4 4 4 5 5 5 4 3 3 2 2 2 2 2 2 3 4 6 6 8 10 12 14
1 4 4 3 5 7 10 10 10 9 7 7 6 5 5 5 4 4 4 3 2 3 3 3 4 4 4 3 3 3 3 3 2 2 3 3 4 4 5 6 8 7 9 12
4 5 6 7 9 9 9 10 11 8 6 6 5 5 5 4 3 2 2 1 2 3 3 3 3 3 4 2 2 2 2 2 2 3 3 4 4 5 5 6 7 8 8 9
7 10 11 11 11 9 9 9 8 6 5 4 3 3 2 2 2 1 1 1 1 1 2 2 3 4 3 2 2 2 2 5 4 3 4 4 4 5 5 6 7 7 8 9
9 8 9 10 9 8 7 6 5 4 3 2 1 1 1 2 2 2 3 2 1 2 3 3 4 4 3 2 2 2 3 4 7 5 4 5 5 6 6 6 7 8 8 9
9 8 8 8 8 7 6 5 3 2 1 0 0 1 1 0 1 3 3 3 3 4 4 4 4 4 4 4 3 2 3 4 4 5 5 5 6 6 6 7 8 9 9 9
10 9 8 7 6 6 4 2 1 0 1 1 1 1 2 2 3 3 3 3 3 5 6 5 6 4 4 5 4 2 4 5 5 5 5 6 7 6 7 7 8 9 9 9
9 8 7 5 4 3 2 0 0 1 2 2 1 2 3 4 3 3 3 3 4 5 5 5 5 4 5 5 6 3 4 5 6 6 6 6 7 7 7 8 9 9 9 8
7 5 4 3 2 1 1 1 1 2 3 2 2 3 4 5 4 2 2 4 5 4 4 5 4 4 4 4 5 3 4 5 5 6 6 6 7 7 8 8 9 9 9 9
3 2 1 1 1 2 3 3 2 3 3 3 3 3 3 4 4 3 3 4 5 5 4 3 3 5 6 5 3 3 4 4 5 5 5 6 6 7 8 9 8 9 9 9
1 1 1 1 2 3 3 3 3 3 3 3 3 3 3 3 2 2 3 3 2 4 3 3 5 8 7 4 3 3 4 4 5 5 5 6 6 7 7 8 8 8 8 8
2 2 2 2 1 2 3 4 4 3 3 3 3 3 2 2 2 2 2 3 4 4 3 4 7 8 6 3 3 3 4 4 5 5 6 6 6 6 6 7 7 7 8 9
1 1 2 2 2 2 3 4 4 3 3 3 3 3 2 1 2 2 2 2 3 4 3 5 7 7 4 3 4 4 4 4 5 5 5 6 6 6 6 6 7 7 7 7
2 2 2 2 2 3 3 2 2 2 2 3 3 3 3 2 1 1 2 3 4 4 4 3 4 4 4 4 4 4 4 5 5 5 6 6 7 7 6 7 9 7 6 7
2 2 2 2 2 2 2 2 2 3 2 2 3 3 3 2 2 2 3 3 3 3 3 3 3 3 4 4 4 4 5 5 5 5 6 6 6 6 7 8 6 6 6 7
Wind_Direction
237 238 203 223 224 185 189 194 195 230 234 258 267 262 258 242 219 196 198 199 202 204 200 195 194 195 191 192 186 182 182 191 202 201 199 200 201 205 206 206 215 216 220 230
281 269 222 253 250 220 215 212 220 246 261 256 277 278 270 244 197 195 208 209 209 206 198 196 197 195 189 190 185 178 186 198 199 193 196 202 205 205 205 212 216 216 223 230
263 316 24 269 246 211 204 210 198 220 245 308 324 330 312 296 229 201 212 209 207 206 203 201 198 189 190 187 171 173 186 192 189 189 198 205 206 203 210 216 216 222 230 231
196 58 235 250 302 169 186 234 235 252 268 275 260 288 38 23 359 328 304 217 207 204 204 197 180 174 171 156 163 175 184 190 188 187 200 200 198 209 216 214 217 226 233 234
133 208 275 293 233 164 188 277 237 238 272 264 242 71 30 15 10 349 327 310 273 190 178 156 160 157 146 152 164 177 192 198 195 192 197 198 206 215 213 209 221 225 231 233
141 182 242 252 231 161 116 284 257 206 244 286 65 75 331 346 359 6 10 13 30 71 88 106 131 135 144 160 167 194 206 206 198 193 198 206 214 215 209 211 226 230 237 237
166 216 259 257 223 109 171 248 268 176 154 70 87 162 260 351 18 25 25 24 41 65 77 90 118 132 151 162 194 209 193 177 180 193 205 212 214 213 214 220 231 236 245 249
151 199 257 229 142 183 218 247 70 70 80 94 97 72 51 46 38 34 34 29 42 63 60 60 90 116 135 182 210 152 141 162 190 199 210 211 209 220 219 220 233 245 253 264
186 211 240 227 217 230 174 158 135 118 109 107 89 71 58 48 42 37 34 30 34 54 56 49 62 98 127 240 116 118 131 174 210 215 218 214 210 223 227 225 237 251 254 264
243 263 256 251 240 227 180 165 132 117 112 104 96 84 71 59 48 43 37 33 36 53 58 46 35 45 44 34 69 98 113 170 210 225 250 243 234 230 233 239 245 253 257 262
253 270 298 287 212 139 113 103 95 93 94 101 101 92 83 69 50 43 42 35 46 58 61 51 43 42 34 41 72 77 60 25 354 304 277 275 266 249 244 243 239 249 260 262
226 224 194 227 158 129 116 109 109 105 90 81 91 89 80 70 58 53 53 50 53 55 57 47 44 38 25 30 64 76 50 14 352 325 307 296 294 295 267 260 270 263 258 259
237 186 144 121 109 110 109 107 103 97 99 93 80 85 87 78 60 57 55 53 56 57 55 46 44 33 13 17 49 59 44 4 343 331 321 314 307 302 305 301 287 280 274 271
142 106 94 89 95 96 100 99 92 84 80 86 88 87 87 83 70 61 51 40 45 51 47 40 37 14 348 12 45 41 24 0 347 323 314 307 299 294 291 297 303 300 291 283
49 88 111 102 90 89 94 97 90 81 75 70 75 86 91 91 80 57 24 23 46 44 24 18 13 335 330 2 33 17 358 334 325 314 308 302 300 298 296 293 290 292 298 297
78 83 94 95 94 91 91 92 93 87 81 74 67 67 76 91 87 49 9 14 49 360 322 320 307 297 318 339 340 330 315 319 323 310 308 308 306 303 301 299 298 297 297 298
89 89 96 98 92 85 81 84 90 93 90 92 112 99 79 68 43 359 334 337 323 296 295 291 288 299 312 308 299 297 302 311 319 315 304 301 302 302 301 301 300 299 295 294
84 89 96 102 104 96 85 79 85 84 81 329 15 74 80 111 261 279 295 317 326 316 299 283 283 296 300 297 288 286 293 297 300 298 299 300 301 299 300 301 302 301 300 301
79 81 83 89 95 103 110 115 125 246 287 293 296 281 270 265 266 279 294 303 299 295 292 298 309 309 302 301 303 286 292 295 297 296 297 300 302 302 302 301 301 302 302 303
73 72 74 73 74 85 91 75 345 316 306 300 300 297 293 286 283 285 289 280 261 254 273 296 307 305 301 304 314 300 297 297 298 301 304 305 304 304 304 303 304 304 305 304
72 74 76 73 54 27 336 298 286 286 294 297 276 270 277 287 294 289 287 292 290 297 305 308 308 306 307 312 317 307 304 303 304 305 307 308 307 307 308 308 308 307 307 307
59 55 44 30 344 307 303 301 293 288 294 298 296 292 295 300 304 295 259 250 278 313 326 324 321 320 325 325 318 314 315 315 314 313 313 313 312 312 312 313 312 312 312 312
356 323 315 301 287 288 305 314 316 309 302 300 300 297 286 281 274 270 293 298 309 328 336 330 332 336 337 336 327 322 323 322 319 317 316 315 314 313 313 315 317 319 320 322
312 314 313 320 349 348 328 321 325 316 306 300 294 285 272 288 300 265 252 303 333 341 345 341 345 347 347 347 341 337 334 330 327 324 322 319 318 317 317 319 322 325 326 328
315 332 353 6 356 317 300 307 317 324 333 327 326 327 317 259 260 301 329 342 348 352 348 348 353 356 1 357 354 350 344 341 337 332 329 327 327 325 325 326 327 328 330 332
358 346 329 309 288 288 296 306 309 308 315 319 323 329 336 343 340 334 347 355 357 355 353 351 353 359 4 4 359 353 348 344 342 340 338 337 335 334 331 330 331 332 332 333
355 350 345 338 327 319 312 303 298 302 305 303 305 317 328 338 351 357 355 354 354 353 353 357 3 9 10 7 2 358 356 353 350 349 347 345 341 339 337 336 338 337 338 339